OCN71F LPMA-EDDF

Flight info

Callsign OCN71F
Flight time N/A
Altitude 34000
Route LAPP1E LAPPA DCT LIDRO R1 DEMOS DCT PIVON DCT MEGAT P600 LOTEE A5 NORMI UN867 MOKOR DCT OLEBA UN873 ELCOB DCT RAK09 ITI90 CREIL ITI93 RSL10 DCT ZATWU DCT BFS TG1 FEWUZ DCT LULAT Y890 KULZO DCT IMCOM IMCO1D
Aircraft A333/M-VGDW/C

Departure

Time 2026-05-08 06:09
Airport Cristiano Ronaldo International Airport (LPMA)

Arrival

Time N/A
Airport Frankfurt Main Airport (EDDF)
Time Latitude Longitude Altitude Speed Heading
2026-05-08 05:46 32.69494 -16.77484 180 ft 0 kts 137°
2026-05-08 06:01 32.69499 -16.77489 180 ft 2 kts 137°
2026-05-08 06:02 32.69511 -16.77502 180 ft 2 kts 139°
2026-05-08 06:02 32.69524 -16.77515 180 ft 2 kts 142°
2026-05-08 06:02 32.69537 -16.77526 180 ft 2 kts 155°
2026-05-08 06:02 32.69553 -16.77529 180 ft 2 kts 212°
2026-05-08 06:03 32.69560 -16.77523 180 ft 0 kts 223°
2026-05-08 06:04 32.69556 -16.77528 180 ft 2 kts 225°
2026-05-08 06:04 32.69543 -16.77544 180 ft 0 kts 227°
2026-05-08 06:05 32.69518 -16.77576 180 ft 11 kts 227°
2026-05-08 06:05 32.69440 -16.77675 180 ft 21 kts 227°
2026-05-08 06:06 32.69324 -16.77817 180 ft 24 kts 227°
2026-05-08 06:06 32.69284 -16.78001 180 ft 23 kts 256°
2026-05-08 06:06 32.69190 -16.78148 180 ft 22 kts 226°
2026-05-08 06:06 32.69081 -16.78282 180 ft 23 kts 226°
2026-05-08 06:07 32.68957 -16.78389 180 ft 22 kts 199°
2026-05-08 06:07 32.68888 -16.78454 180 ft 3 kts 285°
2026-05-08 06:07 32.68899 -16.78465 180 ft 1 kts 332°
2026-05-08 06:07 32.68908 -16.78465 180 ft 1 kts 354°
2026-05-08 06:08 32.68927 -16.78450 180 ft 4 kts 43°
2026-05-08 06:08 32.68931 -16.78445 180 ft 1 kts 44°
2026-05-08 06:08 32.69104 -16.78246 180 ft 72 kts 44°
2026-05-08 06:08 32.69640 -16.77623 180 ft 142 kts 44°
2026-05-08 06:09 32.70500 -16.76622 354 ft 197 kts 43°
2026-05-08 06:09 32.71171 -16.75796 642 ft 223 kts 43°
2026-05-08 06:09 32.71945 -16.74140 1563 ft 240 kts 79°
2026-05-08 06:09 32.71770 -16.72118 2265 ft 254 kts 116°
2026-05-08 06:10 32.70802 -16.70324 2632 ft 265 kts 130°
2026-05-08 06:10 32.69746 -16.68480 3164 ft 274 kts 127°
2026-05-08 06:10 32.68806 -16.66456 3782 ft 284 kts 121°
2026-05-08 06:10 32.67970 -16.64300 4501 ft 290 kts 118°
2026-05-08 06:11 32.67210 -16.62103 5227 ft 294 kts 116°
2026-05-08 06:11 32.66469 -16.59825 6007 ft 297 kts 116°
2026-05-08 06:11 32.65741 -16.57507 6754 ft 301 kts 115°
2026-05-08 06:11 32.65124 -16.55112 7491 ft 309 kts 99°
2026-05-08 06:12 32.65395 -16.52570 8261 ft 317 kts 67°
2026-05-08 06:12 32.66517 -16.50304 9073 ft 319 kts 53°
2026-05-08 06:12 32.68027 -16.48383 9808 ft 319 kts 36°
2026-05-08 06:12 32.69837 -16.46857 10264 ft 330 kts 27°
2026-05-08 06:13 32.71908 -16.45518 10526 ft 347 kts 21°
2026-05-08 06:13 32.74164 -16.44297 10776 ft 365 kts 18°
2026-05-08 06:13 32.76569 -16.43097 11013 ft 383 kts 18°
2026-05-08 06:13 32.79076 -16.41861 11408 ft 395 kts 18°
2026-05-08 06:14 32.81633 -16.40577 12000 ft 401 kts 18°
2026-05-08 06:14 32.84214 -16.39249 12657 ft 406 kts 18°
2026-05-08 06:14 32.86778 -16.37905 13349 ft 410 kts 19°
2026-05-08 06:14 32.89398 -16.36518 13929 ft 414 kts 19°
2026-05-08 06:15 32.92051 -16.35104 14439 ft 420 kts 19°
2026-05-08 06:15 32.94743 -16.33669 14903 ft 426 kts 19°
2026-05-08 06:15 32.97472 -16.32212 15419 ft 432 kts 18°
2026-05-08 06:15 33.00233 -16.30738 15923 ft 437 kts 18°
2026-05-08 06:16 33.03030 -16.29246 16440 ft 442 kts 18°
2026-05-08 06:16 33.05852 -16.27739 16884 ft 448 kts 17°
2026-05-08 06:16 33.08712 -16.26212 17368 ft 453 kts 17°
2026-05-08 06:16 33.11571 -16.24685 17852 ft 457 kts 17°
2026-05-08 06:17 33.17458 -16.21537 18747 ft 468 kts 17°
2026-05-08 06:17 33.20440 -16.19938 19221 ft 470 kts 17°
2026-05-08 06:17 33.23437 -16.18330 19691 ft 473 kts 17°
2026-05-08 06:18 33.26452 -16.16711 20136 ft 476 kts 17°
2026-05-08 06:18 33.29447 -16.15101 20576 ft 479 kts 17°
2026-05-08 06:18 33.32501 -16.13460 21018 ft 482 kts 17°
2026-05-08 06:18 33.35569 -16.11810 21453 ft 485 kts 17°
2026-05-08 06:19 33.38653 -16.10151 21875 ft 488 kts 17°
2026-05-08 06:19 33.41761 -16.08477 22338 ft 491 kts 17°
2026-05-08 06:19 33.44894 -16.06791 22675 ft 496 kts 17°
2026-05-08 06:19 33.48052 -16.05089 23068 ft 499 kts 17°
2026-05-08 06:20 33.51228 -16.03374 23474 ft 502 kts 17°
2026-05-08 06:20 33.54428 -16.01645 23826 ft 505 kts 17°
2026-05-08 06:20 33.57641 -15.99907 24176 ft 507 kts 17°
2026-05-08 06:20 33.60827 -15.98182 24523 ft 509 kts 17°
2026-05-08 06:21 33.64066 -15.96427 24888 ft 512 kts 17°
2026-05-08 06:21 33.67272 -15.94495 25227 ft 519 kts 21°
2026-05-08 06:21 33.70445 -15.92385 25578 ft 523 kts 22°
2026-05-08 06:21 33.73628 -15.90199 25864 ft 528 kts 23°
2026-05-08 06:22 33.76811 -15.87971 26214 ft 530 kts 24°
2026-05-08 06:22 33.80000 -15.85718 26557 ft 533 kts 24°
2026-05-08 06:22 33.83207 -15.83445 26891 ft 535 kts 24°
2026-05-08 06:22 33.86381 -15.81198 27213 ft 537 kts 24°
2026-05-08 06:23 33.89613 -15.78911 27552 ft 540 kts 24°
2026-05-08 06:23 33.92862 -15.76616 27858 ft 542 kts 24°
2026-05-08 06:23 33.96130 -15.74307 28177 ft 544 kts 23°
2026-05-08 06:23 33.99412 -15.71988 28557 ft 547 kts 24°
2026-05-08 06:24 34.02710 -15.69657 28839 ft 550 kts 24°
2026-05-08 06:24 34.05977 -15.67345 29137 ft 552 kts 24°
2026-05-08 06:24 34.09292 -15.64996 29560 ft 551 kts 24°
2026-05-08 06:24 34.12599 -15.62648 30010 ft 549 kts 24°
2026-05-08 06:25 34.15887 -15.60311 30407 ft 548 kts 24°
2026-05-08 06:25 34.19171 -15.57976 30766 ft 547 kts 24°
2026-05-08 06:25 34.22462 -15.55636 31113 ft 547 kts 24°
2026-05-08 06:25 34.25742 -15.53302 31531 ft 546 kts 24°
2026-05-08 06:26 34.28972 -15.51000 31998 ft 543 kts 24°
2026-05-08 06:26 34.32233 -15.48674 32412 ft 541 kts 24°
2026-05-08 06:26 34.35474 -15.46360 32773 ft 540 kts 24°
2026-05-08 06:26 34.38716 -15.44046 33114 ft 540 kts 24°
2026-05-08 06:27 34.41953 -15.41732 33453 ft 539 kts 25°
2026-05-08 06:27 34.45144 -15.39450 33747 ft 540 kts 25°
2026-05-08 06:27 34.51630 -15.34806 33807 ft 541 kts 25°
2026-05-08 06:28 34.58105 -15.30157 33800 ft 539 kts 25°
2026-05-08 06:28 34.64512 -15.25547 33813 ft 538 kts 25°
2026-05-08 06:29 34.70957 -15.20904 33800 ft 538 kts 25°
2026-05-08 06:29 34.77396 -15.16257 33797 ft 538 kts 25°
2026-05-08 06:30 34.83830 -15.11605 33805 ft 538 kts 25°
2026-05-08 06:30 34.90268 -15.06939 33798 ft 538 kts 25°
2026-05-08 06:31 34.96680 -15.02286 33791 ft 538 kts 26°
2026-05-08 06:31 35.03084 -14.97628 33785 ft 538 kts 26°
2026-05-08 06:32 35.09536 -14.92928 33761 ft 538 kts 26°
2026-05-08 06:32 35.15963 -14.88237 33788 ft 538 kts 26°
2026-05-08 06:33 35.22399 -14.83531 33784 ft 538 kts 26°
2026-05-08 06:33 35.28791 -14.78848 33790 ft 538 kts 26°
2026-05-08 06:34 35.35215 -14.74133 33818 ft 538 kts 26°
2026-05-08 06:34 35.41649 -14.69402 33790 ft 539 kts 26°
2026-05-08 06:35 35.48089 -14.64658 33783 ft 539 kts 26°
2026-05-08 06:35 35.54494 -14.59929 33783 ft 539 kts 26°
2026-05-08 06:36 35.60935 -14.55166 33769 ft 539 kts 26°
2026-05-08 06:36 35.67342 -14.50419 33778 ft 540 kts 26°
2026-05-08 06:37 35.73782 -14.45639 33777 ft 541 kts 26°
2026-05-08 06:37 35.80229 -14.40843 33779 ft 541 kts 26°
2026-05-08 06:38 35.86677 -14.36038 33781 ft 541 kts 26°
2026-05-08 06:38 35.93083 -14.31256 33777 ft 542 kts 27°
2026-05-08 06:39 35.99553 -14.26416 33768 ft 543 kts 27°
2026-05-08 06:39 36.06015 -14.21572 33771 ft 543 kts 27°
2026-05-08 06:40 36.12470 -14.16723 33774 ft 542 kts 26°
2026-05-08 06:40 36.18912 -14.11877 33775 ft 542 kts 27°
2026-05-08 06:41 36.25332 -14.07037 33768 ft 542 kts 27°
2026-05-08 06:41 36.31783 -14.02163 33765 ft 542 kts 27°
2026-05-08 06:42 36.38196 -13.97309 33763 ft 542 kts 27°
2026-05-08 06:42 36.44642 -13.92421 33769 ft 542 kts 28°
2026-05-08 06:43 36.51067 -13.87539 33769 ft 540 kts 28°
2026-05-08 06:43 36.57447 -13.82684 33761 ft 540 kts 27°
2026-05-08 06:44 36.63869 -13.77785 33762 ft 540 kts 27°
2026-05-08 06:44 36.70281 -13.72884 33769 ft 540 kts 28°
2026-05-08 06:45 36.76640 -13.68013 33763 ft 539 kts 28°
2026-05-08 06:45 36.83035 -13.63105 33768 ft 539 kts 28°
2026-05-08 06:46 36.89447 -13.58173 33763 ft 539 kts 28°
2026-05-08 06:46 36.95803 -13.53276 33771 ft 540 kts 28°
2026-05-08 06:47 37.02188 -13.48345 33766 ft 538 kts 28°
2026-05-08 06:47 37.08563 -13.43412 33766 ft 539 kts 28°
2026-05-08 06:48 37.14913 -13.38490 33763 ft 539 kts 28°
2026-05-08 06:48 37.21293 -13.33535 33780 ft 539 kts 28°
2026-05-08 06:49 37.27670 -13.28571 33770 ft 538 kts 29°
2026-05-08 06:49 37.33996 -13.23637 33770 ft 537 kts 29°
2026-05-08 06:50 37.40367 -13.18659 33777 ft 537 kts 29°
2026-05-08 06:50 37.46732 -13.13675 33796 ft 538 kts 29°
2026-05-08 06:51 37.53028 -13.08734 33778 ft 536 kts 29°
2026-05-08 06:51 37.59370 -13.03747 33784 ft 536 kts 29°
2026-05-08 06:52 37.65698 -12.98762 33784 ft 536 kts 29°
2026-05-08 06:52 37.71985 -12.93799 33786 ft 536 kts 29°
2026-05-08 06:53 37.78308 -12.88798 33790 ft 536 kts 29°
2026-05-08 06:53 37.84641 -12.83777 33789 ft 536 kts 29°
2026-05-08 06:54 37.90926 -12.78785 33790 ft 536 kts 29°
2026-05-08 06:54 37.97250 -12.73751 33806 ft 535 kts 30°
2026-05-08 06:55 38.03541 -12.68733 33797 ft 532 kts 30°
2026-05-08 06:55 38.09771 -12.63755 33795 ft 531 kts 30°
2026-05-08 06:56 38.16029 -12.58744 33802 ft 531 kts 30°
2026-05-08 06:56 38.22296 -12.53716 33817 ft 531 kts 30°
2026-05-08 06:57 38.28502 -12.48724 33802 ft 529 kts 30°
2026-05-08 06:57 38.34720 -12.43713 33807 ft 528 kts 30°
2026-05-08 06:58 38.40940 -12.38692 33795 ft 528 kts 30°
2026-05-08 06:58 38.47106 -12.33703 33822 ft 528 kts 31°
2026-05-08 06:59 38.53283 -12.28694 33811 ft 523 kts 31°
2026-05-08 06:59 38.58384 -12.24550 33813 ft 522 kts 31°
2026-05-08 07:00 38.64514 -12.19563 33816 ft 522 kts 31°
2026-05-08 07:00 38.70658 -12.14553 33817 ft 522 kts 31°
2026-05-08 07:01 38.76726 -12.09594 33816 ft 517 kts 31°
2026-05-08 07:01 38.82776 -12.04637 33815 ft 514 kts 31°
2026-05-08 07:02 38.88807 -11.99689 33824 ft 513 kts 31°
2026-05-08 07:02 38.94781 -11.94778 33823 ft 512 kts 31°
2026-05-08 07:03 39.00779 -11.89836 33822 ft 509 kts 32°
2026-05-08 07:03 39.06734 -11.84920 33826 ft 507 kts 32°
2026-05-08 07:04 39.12667 -11.80012 33827 ft 507 kts 32°
2026-05-08 07:04 39.18574 -11.75116 33825 ft 507 kts 32°
2026-05-08 07:05 39.24483 -11.70208 33837 ft 505 kts 32°
2026-05-08 07:05 39.30383 -11.65297 33835 ft 503 kts 32°
2026-05-08 07:06 39.36261 -11.60395 33834 ft 503 kts 32°
2026-05-08 07:06 39.42148 -11.55474 33838 ft 503 kts 32°
2026-05-08 07:07 39.47997 -11.50576 33847 ft 503 kts 32°
2026-05-08 07:07 39.53876 -11.45642 33840 ft 503 kts 32°
2026-05-08 07:08 39.59770 -11.40685 33840 ft 503 kts 32°
2026-05-08 07:08 39.65617 -11.35757 33840 ft 503 kts 32°
2026-05-08 07:09 39.71494 -11.30795 33842 ft 503 kts 32°
2026-05-08 07:09 39.77369 -11.25823 33842 ft 503 kts 33°
2026-05-08 07:10 39.83239 -11.20845 33843 ft 504 kts 33°
2026-05-08 07:10 39.89118 -11.15849 33846 ft 504 kts 33°
2026-05-08 07:11 39.94954 -11.10880 33849 ft 504 kts 33°
2026-05-08 07:11 40.00817 -11.05878 33844 ft 502 kts 33°
2026-05-08 07:12 40.06664 -11.00878 33854 ft 502 kts 33°
2026-05-08 07:12 40.12487 -10.95889 33854 ft 502 kts 33°
2026-05-08 07:13 40.18336 -10.90867 33850 ft 501 kts 33°
2026-05-08 07:13 40.24164 -10.85853 33853 ft 501 kts 33°
2026-05-08 07:14 40.29951 -10.80864 33857 ft 501 kts 33°
2026-05-08 07:14 40.35789 -10.75819 33856 ft 501 kts 33°
2026-05-08 07:15 40.41572 -10.70812 33871 ft 501 kts 34°
2026-05-08 07:15 40.47384 -10.65772 33860 ft 499 kts 34°
2026-05-08 07:16 40.53170 -10.60740 33857 ft 498 kts 34°
2026-05-08 07:16 40.58958 -10.55696 33856 ft 498 kts 35°
2026-05-08 07:17 40.64713 -10.50672 33863 ft 498 kts 35°
2026-05-08 07:17 40.70484 -10.45623 33865 ft 497 kts 36°
2026-05-08 07:18 40.76248 -10.40569 33863 ft 497 kts 36°
2026-05-08 07:18 40.82005 -10.35510 33863 ft 497 kts 36°
2026-05-08 07:19 40.87727 -10.30472 33863 ft 497 kts 36°
2026-05-08 07:19 40.93489 -10.25388 33869 ft 496 kts 37°
2026-05-08 07:20 40.99228 -10.20314 33844 ft 495 kts 37°